Flag for Canada Weather past 2 weeks in Thompson, Manitoba, Canada

Now
59 °F

Thunderstorms. Fog.


Feels Like: 58 °F
Forecast: 58 / 73 °F
Wind: 6 mph from Southwest

Location: Thompson

Current Time: Aug 1, 2014 at 5:39:27 AM

Latest Report: Aug 1, 2014 at 5:00 AM


Visibility: 6 mi

Pressure: 29.99 "Hg

Humidity: 100%

Dew point: 59 °F

Location of ThompsonLocation

Historic Weather in Thompson — Graph

°F

Thompson temperature yesterday

Maximum temperature yesterday: 81 °F (at 4:00 PM)
Minimum temperature yesterday: 59 °F (at 12:00 AM)
Average temperature yesterday: 69 °F

Past Weeks' High & Low Weather Summary

 TemperatureHumidityPressure
High84 °F (Jul 24, 5:00 PM)100% (Jul 18, 1:00 AM)30.27 "Hg (Jul 18, 1:00 AM)
Low39 °F (Jul 22, 5:00 AM)32% (Jul 23, 7:00 PM)29.39 "Hg (Jul 20, 2:00 PM)
Average64 °F74%29.92 "Hg
* Reported Jul 17 4:00 AM — Aug 1 4:00 AM, Thompson, Weather by CustomWeather, © 2014

Note: Actual official high and low records may vary slightly from our data, if they occured in-between our weather recording intervals... More about our weather records

Advertising

Thompson weather history for previous 24 hours

 ConditionsComfort  
Time TempWeatherWind HumidityBarometerVisibility
4:00 AM
Aug 1
61 °FThunderstorms. Partly cloudy.3 mph88%30.00 "Hg10 mi
3:00 AM59 °FPassing clouds.No wind88%30.00 "Hg10 mi
2:00 AM63 °FPartly cloudy.5 mph77%30.00 "Hg10 mi
1:00 AM63 °FPassing clouds.6 mph77%30.01 "Hg10 mi
12:00 AM63 °FPassing clouds.5 mph77%30.01 "Hg15 mi
11:00 PM
Jul 31
63 °FPassing clouds.3 mph83%30.01 "Hg15 mi
10:00 PM68 °FBroken clouds.5 mph73%30.01 "Hg15 mi
9:00 PM73 °FBroken clouds.5 mph57%30.01 "Hg15 mi
8:00 PM77 °FPartly sunny.6 mph51%30.01 "Hg15 mi
7:00 PM77 °FPartly sunny.6 mph51%30.02 "Hg10 mi
6:00 PM81 °FPartly sunny.5 mph42%30.02 "Hg10 mi
5:00 PM81 °FScattered clouds.3 mph42%30.03 "Hg10 mi
4:00 PM81 °FBroken clouds.7 mph42%30.04 "Hg15 mi
3:00 PM79 °FPartly sunny.7 mph45%30.05 "Hg10 mi
2:00 PM77 °FBroken clouds.5 mph47%30.06 "Hg10 mi
1:00 PM77 °FBroken clouds.8 mph47%30.06 "Hg10 mi
12:00 PM75 °FPartly sunny.8 mph54%30.07 "Hg10 mi
11:00 AM72 °FScattered clouds.6 mph61%30.08 "Hg10 mi
10:00 AM68 °FScattered clouds.7 mph64%30.08 "Hg10 mi
9:00 AM64 °FScattered clouds.7 mph73%30.08 "Hg10 mi
8:00 AM63 °FScattered clouds.6 mph77%30.09 "Hg10 mi
7:00 AM59 °FScattered clouds.3 mph82%30.08 "Hg8 mi
6:00 AM59 °FPassing clouds.5 mph82%30.09 "Hg6 mi
5:00 AM59 °FPassing clouds.5 mph82%30.08 "Hg5 mi
Weather by CustomWeather, © 2014

See weather overviewHow to use our weather pages